| time (UTC) | temp F | wind direction | speed MPH | gust MPH | rain 1hr in | rain 24hr in | rain mn in | humidity % | barometer mb |
| 20260505114036 | 53 | 90 | 5.0 | 10.0 | 0.00 | 0.08 | 0.00 | 63 | 1007.9 |
| 20260505113016 | 53 | 113 | 3.0 | 7.0 | 0.00 | 0.08 | 0.00 | 63 | 1007.9 |
| 20260505112016 | 52 | 270 | 1.0 | 2.0 | 0.00 | 0.08 | 0.00 | 63 | 1007.9 |
| 20260505111016 | 53 | 0.0 | 0.0 | 0.00 | 0.08 | 0.00 | 64 | 1008.0 | |
| 20260505102037 | 54 | 135 | 1.0 | 3.0 | 0.00 | 0.08 | 0.00 | 58 | 1007.8 |
| 20260505101016 | 54 | 135 | 1.0 | 2.0 | 0.00 | 0.08 | 0.00 | 59 | 1007.7 |
| 20260505100017 | 54 | 135 | 2.0 | 3.0 | 0.00 | 0.08 | 0.00 | 58 | 1007.8 |
| 20260505095016 | 54 | 135 | 1.0 | 3.0 | 0.00 | 0.08 | 0.00 | 60 | 1008.9 |
| 20260505094016 | 53 | 135 | 2.0 | 5.0 | 0.00 | 0.08 | 0.00 | 62 | 1008.6 |
| 20260505093016 | 53 | 135 | 3.0 | 7.0 | 0.00 | 0.08 | 0.00 | 65 | 1008.6 |
| 20260505092016 | 54 | 90 | 5.0 | 7.0 | 0.00 | 0.08 | 0.00 | 63 | 1009.1 |
| 20260505091016 | 53 | 113 | 1.0 | 3.0 | 0.00 | 0.08 | 0.00 | 65 | 1009.0 |
| 20260505090016 | 53 | 0.0 | 0.0 | 0.00 | 0.08 | 0.00 | 67 | 1009.1 | |
| 20260505085016 | 54 | 113 | 3.0 | 8.0 | 0.00 | 0.08 | 0.00 | 63 | 1009.2 |
| 20260505084016 | 54 | 113 | 1.0 | 3.0 | 0.00 | 0.08 | 0.00 | 62 | 1009.3 |
| 20260505083037 | 54 | 113 | 2.0 | 4.0 | 0.00 | 0.08 | 0.00 | 62 | 1009.1 |
| 20260505082017 | 54 | 0.0 | 0.0 | 0.00 | 0.08 | 0.00 | 63 | 1009.6 | |
| 20260505081016 | 54 | 0.0 | 1.0 | 0.00 | 0.08 | 0.00 | 63 | 1009.6 | |
| 20260505080017 | 54 | 0.0 | 2.0 | 0.00 | 0.08 | 0.00 | 63 | 1009.5 | |
| 20260505075016 | 54 | 0.0 | 0.0 | 0.00 | 0.08 | 0.00 | 62 | 1009.5 | |
| 20260505074016 | 54 | 23 | 1.0 | 5.0 | 0.00 | 0.08 | 0.00 | 63 | 1009.4 |
| 20260505073016 | 54 | 23 | 3.0 | 6.0 | 0.00 | 0.08 | 0.00 | 64 | 1009.3 |
| 20260505072016 | 54 | 0.0 | 1.0 | 0.00 | 0.08 | 0.00 | 64 | 1009.2 | |
| 20260505071016 | 54 | 113 | 3.0 | 6.0 | 0.00 | 0.08 | 0.00 | 64 | 1009.1 |
| 20260505070016 | 53 | 113 | 2.0 | 4.0 | 0.00 | 0.08 | 0.00 | 65 | 1009.1 |
| 20260505065036 | 53 | 0.0 | 2.0 | 0.00 | 0.08 | 0.00 | 65 | 1008.7 | |
| 20260505064016 | 54 | 0.0 | 2.0 | 0.00 | 0.08 | 0.00 | 64 | 1009.1 | |
| 20260505063036 | 53 | 45 | 4.0 | 6.0 | 0.00 | 0.08 | 0.00 | 63 | 1008.7 |
| 20260505062016 | 53 | 0 | 1.0 | 3.0 | 0.00 | 0.08 | 0.00 | 62 | 1008.7 |
| 20260505061036 | 53 | 45 | 1.0 | 3.0 | 0.00 | 0.08 | 0.00 | 61 | 1008.7 |
| 20260505060016 | 53 | 45 | 2.0 | 4.0 | 0.00 | 0.08 | 0.08 | 61 | 1008.5 |
| 20260505055017 | 54 | 23 | 2.0 | 5.0 | 0.00 | 0.08 | 0.08 | 59 | 1008.6 |
| 20260505054017 | 54 | 113 | 1.0 | 2.0 | 0.00 | 0.08 | 0.08 | 58 | 1008.5 |
| 20260505053017 | 54 | 0.0 | 2.0 | 0.00 | 0.08 | 0.08 | 56 | 1008.4 | |
| 20260505052017 | 55 | 113 | 1.0 | 3.0 | 0.00 | 0.08 | 0.08 | 56 | 1007.9 |
| 20260505051037 | 56 | 0.0 | 1.0 | 0.00 | 0.08 | 0.08 | 54 | 1008.2 | |
| 20260505041017 | 59 | 90 | 2.0 | 4.0 | 0.00 | 0.08 | 0.08 | 48 | 1007.7 |
| 20260505040038 | 59 | 0.0 | 2.0 | 0.00 | 0.08 | 0.08 | 45 | 1007.7 | |
| 20260505035017 | 60 | 135 | 2.0 | 3.0 | 0.00 | 0.08 | 0.08 | 43 | 1007.2 |
| 20260505034017 | 59 | 113 | 6.0 | 12.0 | 0.00 | 0.08 | 0.08 | 45 | 1006.5 |
| 20260505033017 | 59 | 113 | 8.0 | 11.0 | 0.00 | 0.08 | 0.08 | 43 | 1006.6 |
| 20260505032037 | 60 | 113 | 6.0 | 12.0 | 0.00 | 0.08 | 0.08 | 44 | 1006.2 |
| 20260505031017 | 60 | 113 | 4.0 | 10.0 | 0.00 | 0.08 | 0.08 | 44 | 1006.5 |
| 20260505030017 | 61 | 113 | 3.0 | 9.0 | 0.00 | 0.08 | 0.08 | 42 | 1006.4 |
| 20260505025017 | 62 | 113 | 3.0 | 6.0 | 0.00 | 0.08 | 0.08 | 41 | 1006.1 |
| 20260505024017 | 62 | 113 | 3.0 | 7.0 | 0.00 | 0.08 | 0.08 | 41 | 1005.9 |
| 20260505023017 | 63 | 113 | 2.0 | 6.0 | 0.00 | 0.08 | 0.08 | 39 | 1005.9 |
| 20260505022018 | 63 | 90 | 5.0 | 8.0 | 0.00 | 0.08 | 0.08 | 40 | 1005.9 |
| 20260505021017 | 63 | 90 | 3.0 | 5.0 | 0.00 | 0.08 | 0.08 | 39 | 1005.7 |
| 20260505020017 | 63 | 113 | 5.0 | 9.0 | 0.00 | 0.08 | 0.08 | 40 | 1005.8 |
| 20260505015037 | 64 | 113 | 1.0 | 4.0 | 0.00 | 0.08 | 0.08 | 38 | 1006.0 |
| 20260505014017 | 64 | 0.0 | 1.0 | 0.00 | 0.08 | 0.08 | 37 | 1006.0 | |
| 20260505013017 | 64 | 113 | 2.0 | 5.0 | 0.00 | 0.08 | 0.08 | 35 | 1006.0 |
| 20260505012037 | 65 | 113 | 2.0 | 5.0 | 0.00 | 0.08 | 0.08 | 35 | 1005.6 |
| 20260505011017 | 64 | 90 | 4.0 | 8.0 | 0.00 | 0.08 | 0.08 | 35 | 1005.6 |
| 20260505010017 | 65 | 45 | 6.0 | 10.0 | 0.00 | 0.08 | 0.08 | 34 | 1005.9 |
| 20260505005017 | 64 | 135 | 4.0 | 9.0 | 0.00 | 0.08 | 0.08 | 34 | 1005.6 |
| 20260505004017 | 64 | 45 | 8.0 | 12.0 | 0.00 | 0.08 | 0.08 | 33 | 1005.6 |
| 20260505003017 | 64 | 45 | 7.0 | 12.0 | 0.00 | 0.08 | 0.08 | 36 | 1005.9 |
| 20260505002017 | 64 | 45 | 8.0 | 18.0 | 0.00 | 0.08 | 0.08 | 36 | 1005.7 |
| 20260505001017 | 64 | 45 | 9.0 | 15.0 | 0.00 | 0.08 | 0.08 | 37 | 1005.8 |
| 20260505000057 | 63 | 23 | 7.0 | 16.0 | 0.00 | 0.08 | 0.08 | 40 | 1006.1 |
| 20260504235017 | 63 | 45 | 9.0 | 19.0 | 0.00 | 0.08 | 0.08 | 42 | 1006.6 |
| 20260504234037 | 62 | 45 | 11.0 | 22.0 | 0.00 | 0.08 | 0.08 | 44 | 1006.5 |
| 20260504233017 | 61 | 23 | 11.0 | 22.0 | 0.00 | 0.08 | 0.08 | 45 | 1006.8 |
| 20260504232037 | 61 | 45 | 9.0 | 17.0 | 0.00 | 0.08 | 0.08 | 45 | 1006.6 |
| 20260504231017 | 61 | 45 | 11.0 | 21.0 | 0.00 | 0.08 | 0.08 | 44 | 1006.8 |
| 20260504230017 | 62 | 113 | 3.0 | 7.0 | 0.01 | 0.08 | 0.08 | 44 | 1006.7 |
| 20260504225017 | 61 | 45 | 5.0 | 10.0 | 0.01 | 0.08 | 0.08 | 44 | 1006.8 |
| 20260504224017 | 59 | 113 | 3.0 | 5.0 | 0.03 | 0.08 | 0.08 | 49 | 1006.6 |
| 20260504223017 | 58 | 113 | 5.0 | 11.0 | 0.07 | 0.08 | 0.08 | 52 | 1006.2 |
| 20260504222017 | 58 | 135 | 3.0 | 6.0 | 0.08 | 0.08 | 0.08 | 55 | 1006.3 |
| 20260504221037 | 59 | 135 | 8.0 | 15.0 | 0.08 | 0.08 | 0.08 | 52 | 1006.3 |
| 20260504220017 | 61 | 113 | 3.0 | 13.0 | 0.07 | 0.07 | 0.07 | 44 | 1006.3 |
| 20260504215020 | 61 | 45 | 5.0 | 11.0 | 0.07 | 0.07 | 0.07 | 55 | 1006.5 |
| 20260504214017 | 62 | 135 | 8.0 | 27.0 | 0.05 | 0.05 | 0.05 | 43 | 1006.9 |
| 20260504213017 | 66 | 135 | 2.0 | 5.0 | 0.01 | 0.01 | 0.01 | 38 | 1007.2 |
| 20260504212017 | 68 | 248 | 1.0 | 3.0 | 0.00 | 0.00 | 0.00 | 37 | 1007.5 |
| 20260504211017 | 69 | 270 | 1.0 | 4.0 | 0.00 | 0.00 | 0.00 | 28 | 1007.4 |
| 20260504210017 | 69 | 225 | 1.0 | 3.0 | 0.00 | 0.00 | 0.00 | 29 | 1007.4 |
| 20260504205017 | 69 | 248 | 2.0 | 3.0 | 0.00 | 0.00 | 0.00 | 28 | 1007.5 |
| 20260504204058 | 69 | 293 | 2.0 | 4.0 | 0.00 | 0.00 | 0.00 | 28 | 1007.5 |
| 20260504203016 | 69 | 315 | 3.0 | 7.0 | 0.00 | 0.00 | 0.00 | 27 | 1007.6 |
| 20260504202017 | 70 | 338 | 3.0 | 8.0 | 0.00 | 0.00 | 0.00 | 28 | 1008.0 |
| 20260504201037 | 70 | 135 | 1.0 | 4.0 | 0.00 | 0.00 | 0.00 | 24 | 1008.0 |
| 20260504200017 | 71 | 248 | 5.0 | 10.0 | 0.00 | 0.00 | 0.00 | 24 | 1008.1 |
| 20260504195017 | 72 | 225 | 4.0 | 11.0 | 0.00 | 0.00 | 0.00 | 24 | 1008.8 |
| 20260504194016 | 72 | 315 | 4.0 | 8.0 | 0.00 | 0.00 | 0.00 | 25 | 1008.9 |
| 20260504193017 | 71 | 270 | 4.0 | 10.0 | 0.00 | 0.00 | 0.00 | 24 | 1008.6 |
| 20260504192016 | 70 | 23 | 3.0 | 7.0 | 0.00 | 0.00 | 0.00 | 24 | 1008.7 |
| 20260504191037 | 71 | 45 | 4.0 | 8.0 | 0.00 | 0.00 | 0.00 | 25 | 1008.9 |
| 20260504190016 | 71 | 270 | 3.0 | 9.0 | 0.00 | 0.00 | 0.00 | 26 | 1009.0 |
| 20260504185158 | 71 | 248 | 3.0 | 9.0 | 0.00 | 0.00 | 0.00 | 25 | 1009.1 |
| 20260504184017 | 71 | 270 | 3.0 | 8.0 | 0.00 | 0.00 | 0.00 | 25 | 1009.2 |
| 20260504183017 | 70 | 270 | 3.0 | 7.0 | 0.00 | 0.00 | 0.00 | 26 | 1009.4 |
| 20260504182017 | 69 | 248 | 4.0 | 7.0 | 0.00 | 0.00 | 0.00 | 27 | 1009.2 |
| 20260504181017 | 70 | 248 | 6.0 | 10.0 | 0.00 | 0.00 | 0.00 | 28 | 1009.3 |
| 20260504180017 | 70 | 270 | 3.0 | 7.0 | 0.00 | 0.00 | 0.00 | 28 | 1009.8 |
| 20260504175016 | 69 | 0 | 3.0 | 5.0 | 0.00 | 0.00 | 0.00 | 28 | 1009.5 |
| 20260504174016 | 68 | 225 | 2.0 | 5.0 | 0.00 | 0.00 | 0.00 | 29 | 1009.7 |
| 20260504173037 | 68 | 203 | 4.0 | 8.0 | 0.00 | 0.00 | 0.00 | 31 | 1009.9 |
| 20260504172016 | 68 | 270 | 3.0 | 7.0 | 0.00 | 0.00 | 0.00 | 31 | 1010.0 |
| 20260504171017 | 68 | 225 | 2.0 | 4.0 | 0.00 | 0.00 | 0.00 | 31 | 1010.1 |
| 20260504151017 | 63 | 135 | 2.0 | 3.0 | 0.00 | 0.00 | 0.00 | 34 | 1010.7 |
| 20260504141037 | 58 | 90 | 3.0 | 8.0 | 0.00 | 0.00 | 0.00 | 34 | 1010.2 |